Home   Weather   Rouen   Past weeks

Flag for France Past Weather in Rouen, Upper Normandy, France — Yesterday and Last 2 Weeks

Now
34 °F

Clear.


Feels Like: 27 °F
Forecast: 20 / 37 °F
Wind: 8 mph from Southeast

Location: Rouen Airport

Current Time: Jan 21, 2017 at 2:44:10 pm

Latest Report: Jan 21, 2017 at 2:00 pm


Visibility: 6 mi

Pressure: 30.27 "Hg

Humidity: 70%

Dew Point: 25 °F

Location of RouenLocation

Past Weather in Rouen — Graph

°F

Rouen Temperature Yesterday

Maximum temperature yesterday: 34 °F (at 2:00 pm)
Minimum temperature yesterday: 23 °F (at 7:00 am)
Average temperature yesterday: 28 °F

High & Low Weather Summary for the Past Weeks

 TemperatureHumidityPressure
High52 °F (Jan 11, 1:00 pm)100% (Jan 7, 9:30 am)30.66 "Hg (Jan 7, 9:30 am)
Low19 °F (Jan 21, 8:30 am)51% (Jan 18, 5:00 pm)29.21 "Hg (Jan 12, 7:00 pm)
Average35 °F85%30.25 "Hg
* Reported Jan 6 1:00 pm — Jan 21 1:00 pm, Rouen, Weather by CustomWeather, © 2017

Note: Actual official high and low records may vary slightly from our data, if they occured in-between our weather recording intervals... More about our weather records

Advertising

Rouen Weather History for the Previous 24 Hours

Scroll right to see more
 ConditionsComfort  
Time TempWeatherWind HumidityBarometerVisibility
1:00 pm
Sat, Jan 21
32 °FClear.7 mph69%30.30 "Hg6 mi
12:30 pm32 °FClear.6 mph69%30.30 "Hg6 mi
12:00 pm30 °FClear.6 mph75%30.33 "Hg4 mi
11:30 am28 °FClear.6 mph74%30.33 "Hg4 mi
11:00 am27 °FClear.9 mph80%30.33 "Hg4 mi
10:30 am25 °FClear.9 mph80%30.33 "Hg5 mi
10:00 am23 °FClear.7 mph86%30.33 "Hg4 mi
9:30 am21 °FClear.5 mph86%30.33 "Hg4 mi
9:00 am19 °FClear.6 mph86%30.30 "Hg4 mi
8:30 am19 °FClear.6 mph86%30.30 "Hg4 mi
8:00 am21 °FClear.3 mph86%30.33 "Hg4 mi
7:30 am21 °FClear.6 mph86%30.30 "Hg5 mi
7:00 am21 °FClear.6 mph86%30.30 "Hg5 mi
6:30 am21 °FClear.6 mph86%30.30 "Hg5 mi
6:00 am21 °FClear.6 mph86%30.30 "Hg6 mi
5:30 am21 °FClear.5 mph86%30.33 "Hg10 mi
5:00 am21 °FClear.5 mph86%30.33 "Hg10 mi
4:30 am23 °FClear.6 mph80%30.33 "Hg10 mi
4:00 am23 °FClear.6 mph86%30.33 "Hg10 mi
3:30 am23 °FClear.6 mph80%30.33 "Hg10 mi
3:00 am23 °FClear.6 mph80%30.33 "Hg10 mi
2:30 am23 °FClear.6 mph80%30.36 "Hg10 mi
2:00 am23 °FClear.6 mph80%30.36 "Hg10 mi
1:30 am23 °FClear.6 mph80%30.36 "Hg5 mi
1:00 am25 °FClear.6 mph80%30.36 "Hg10 mi
12:30 am23 °FClear.6 mph86%30.36 "Hg6 mi
12:00 am25 °FClear.6 mph80%30.36 "Hg5 mi
11:30 pm
Fri, Jan 20
25 °FClear.5 mph80%30.36 "Hg6 mi
11:00 pm25 °FClear.6 mph80%30.36 "Hg10 mi
10:30 pm25 °FClear.7 mph80%30.39 "Hg10 mi
10:00 pm25 °FClear.7 mph80%30.39 "Hg10 mi
9:30 pm25 °FClear.7 mph80%30.39 "Hg10 mi
9:00 pm27 °FClear.7 mph74%30.39 "Hg10 mi
8:30 pm27 °FClear.8 mph74%30.39 "Hg10 mi
8:00 pm27 °FClear.7 mph80%30.39 "Hg10 mi
7:30 pm27 °FClear.7 mph80%30.39 "Hg10 mi
7:00 pm27 °FClear.7 mph80%30.39 "Hg10 mi
6:30 pm28 °FClear.6 mph74%30.39 "Hg10 mi
6:00 pm28 °FClear.6 mph74%30.39 "Hg10 mi
5:30 pm30 °FSunny.5 mph69%30.39 "Hg10 mi
5:00 pm32 °FSunny.6 mph64%30.39 "Hg10 mi
4:30 pm32 °FSunny.6 mph64%30.39 "Hg10 mi
4:00 pm34 °FSunny.8 mph60%30.39 "Hg10 mi
3:30 pm34 °FPassing clouds.7 mph60%30.39 "HgN/A
3:00 pm34 °FPassing clouds.8 mph60%30.39 "HgN/A
2:30 pm34 °FSunny.9 mph60%30.39 "Hg10 mi
2:00 pm34 °FSunny.9 mph56%30.39 "Hg10 mi
Weather by CustomWeather, © 2017

See weather overviewHow to use our weather pages